Theta_e
368 369 368 366 366 367 367 367 366 365 364 363 362 362 362 361 361 361 361 361 360 360 360 361 362 363 363 361 360 358 361 362 361 363 364 363 362 360 360 361 360 357 355 354 353 353 350 347 347 349 348 346 346 346 345 345 345 342 341 342 342 342 343 343 344 343 343 341 338 337 338 339 338 338 340 340 340 341 341 341 340 339 340 340 338
368 368 368 366 366 367 367 368 367 366 365 364 363 363 363 364 363 362 362 362 361 361 362 362 362 362 363 362 361 359 360 363 362 362 364 365 362 361 361 361 361 359 357 356 355 354 353 350 348 348 349 347 347 346 344 345 345 343 342 343 343 343 343 342 343 343 343 342 341 340 338 338 339 340 340 340 340 341 343 342 341 341 341 340 338
368 369 368 366 366 367 368 368 368 368 366 365 364 363 363 365 365 365 363 363 363 363 362 363 363 363 363 362 364 362 361 362 363 362 364 365 363 361 361 361 361 359 358 357 356 355 354 352 350 349 348 348 347 346 345 344 345 343 342 342 343 344 343 343 343 343 342 342 343 342 340 338 338 339 340 341 341 340 341 342 341 340 340 340 339
366 369 368 367 367 367 368 368 367 368 366 364 365 363 361 364 366 366 365 363 363 364 363 363 364 365 364 363 364 364 363 363 364 363 364 366 365 362 361 362 363 361 359 358 357 357 355 354 353 351 349 348 348 346 345 345 345 344 343 343 344 344 344 344 345 344 342 342 342 343 342 341 340 339 340 341 341 340 341 341 341 340 339 340 339
365 368 368 367 367 368 367 367 367 367 365 364 362 361 360 361 364 366 366 363 361 363 365 364 365 367 366 364 364 366 365 365 366 365 364 365 367 364 362 362 363 362 360 358 358 358 357 355 355 353 350 349 348 347 346 345 345 345 344 344 345 345 344 345 345 345 344 342 343 343 343 342 342 341 340 341 341 342 342 341 341 341 341 341 339
363 367 367 366 366 368 368 367 366 366 364 363 361 361 359 360 361 364 366 364 361 361 365 366 366 367 367 366 365 366 367 367 367 366 364 364 366 365 364 362 363 363 362 360 359 359 359 357 356 355 352 350 349 348 347 347 346 346 345 345 346 346 345 345 346 346 345 343 344 344 343 343 343 343 342 341 341 342 342 342 342 342 342 342 341
362 366 367 365 366 368 369 368 366 365 364 362 360 360 359 358 358 361 364 366 363 360 362 366 367 367 368 368 366 367 368 367 367 367 366 364 366 366 365 363 362 364 363 361 361 360 360 359 357 356 355 353 351 350 349 347 346 346 346 346 346 347 347 346 346 347 346 344 344 343 343 343 344 344 343 342 342 342 342 343 344 343 345 344 342
363 366 368 366 367 369 370 370 367 365 364 364 361 360 359 358 358 360 362 365 365 361 360 363 367 367 368 369 368 367 368 368 368 369 368 366 365 366 365 362 362 363 363 363 362 361 361 361 358 357 357 355 353 351 350 349 347 347 347 346 347 346 347 346 346 346 346 345 344 343 343 343 343 343 343 343 344 344 343 343 343 344 345 346 345
364 366 368 367 368 369 370 370 369 366 364 366 365 362 360 360 359 359 362 363 365 363 360 359 365 367 368 369 368 368 368 368 368 369 369 368 366 366 366 364 361 362 363 363 361 360 360 360 359 358 357 357 354 352 351 350 349 349 348 348 348 347 346 346 347 347 346 344 343 344 343 342 343 343 343 345 346 346 344 343 343 343 345 346 346
365 366 367 368 369 370 372 372 371 370 366 367 369 365 361 361 361 360 362 362 364 364 363 360 361 365 368 369 369 368 368 369 367 366 367 367 368 366 366 365 363 361 363 363 362 360 358 358 359 359 358 357 355 353 352 351 349 349 349 349 348 348 348 346 347 347 346 345 343 344 343 343 342 342 342 344 346 345 343 343 343 344 345 346 344
365 365 367 370 370 372 373 373 372 371 370 368 370 368 364 363 362 362 362 363 364 364 365 363 361 362 365 369 369 369 369 368 366 365 364 365 366 366 366 366 365 363 362 362 361 359 358 357 357 358 358 357 356 355 353 351 349 348 348 349 349 348 348 347 347 347 347 346 344 343 343 343 342 343 342 342 343 344 343 344 345 345 345 346 344
365 365 367 369 371 373 373 374 373 372 371 370 370 370 368 366 364 364 364 365 365 365 365 366 364 362 363 367 369 370 369 367 365 364 363 362 362 364 366 366 366 364 363 362 362 360 358 357 357 358 357 358 357 355 354 352 350 348 347 348 348 347 347 347 347 347 346 346 345 343 343 342 342 342 341 341 342 344 344 344 343 343 345 347 344
364 366 367 368 371 373 373 374 374 373 373 372 370 371 370 368 367 366 367 367 367 367 367 367 367 365 363 365 368 369 369 368 365 363 363 361 360 361 364 365 365 365 364 362 362 361 360 357 357 356 357 357 356 356 354 353 351 349 347 347 347 347 346 345 346 346 346 346 345 344 343 342 342 341 341 341 342 343 344 343 342 343 345 345 343
363 367 367 368 371 373 373 375 374 374 374 372 371 372 371 370 368 367 367 368 368 369 368 368 368 368 366 365 366 368 369 369 367 364 362 362 360 358 361 364 364 365 365 364 362 362 361 360 357 356 357 358 357 356 355 354 351 350 348 346 346 346 346 344 343 345 345 345 345 345 344 342 342 341 340 342 343 344 344 344 342 342 343 343 343
363 367 368 370 372 373 374 374 374 374 374 373 371 371 371 371 370 367 368 368 368 369 369 369 369 368 368 366 365 366 368 368 368 366 363 362 360 360 359 362 364 365 365 365 364 363 362 362 359 357 358 358 358 356 356 355 352 351 349 347 347 347 346 345 343 343 343 343 344 344 344 343 342 341 342 344 345 344 343 344 344 343 343 343 343
362 367 368 370 371 374 373 373 374 374 374 372 373 371 372 372 371 369 367 367 368 369 369 369 368 368 369 367 366 366 367 366 367 367 365 362 361 360 359 360 362 363 365 365 365 364 363 363 361 360 359 359 359 357 355 355 354 352 350 349 348 348 347 345 344 343 342 341 342 342 342 342 342 342 343 344 345 344 343 343 345 346 344 343 341
363 367 370 371 371 373 373 373 374 373 373 373 372 372 371 372 371 370 368 367 367 368 370 369 369 369 368 368 368 366 366 366 365 366 366 364 362 360 360 360 361 362 363 364 365 366 365 363 362 362 361 360 361 358 354 354 355 354 352 351 350 348 348 347 345 343 342 341 340 340 341 341 341 342 342 342 343 344 343 342 342 341 341 341 340
362 366 370 372 371 371 372 372 373 373 373 373 372 372 371 371 371 370 369 367 366 366 368 369 368 369 368 368 368 368 367 367 366 366 365 365 363 361 360 360 362 362 362 362 363 365 365 363 362 362 362 361 361 359 355 353 355 356 355 353 352 350 349 347 346 344 342 341 341 340 340 340 340 341 341 341 341 342 341 341 339 337 337 338 338
363 365 370 371 370 370 371 371 373 373 372 372 371 371 370 370 371 370 369 368 366 365 366 367 368 369 369 368 368 367 368 368 367 366 366 364 363 362 360 361 362 362 362 362 362 364 364 363 362 361 360 361 361 360 356 353 354 357 356 354 353 352 350 348 347 345 344 342 341 340 340 340 340 340 341 340 338 338 339 340 338 336 335 335 335
364 365 368 370 370 370 370 371 372 371 371 371 369 370 370 370 369 370 369 368 367 366 365 365 367 369 368 369 369 367 367 368 367 367 366 364 363 361 360 362 363 362 363 363 362 363 364 363 362 359 359 359 360 360 357 353 353 356 356 354 353 353 350 348 347 347 345 344 342 341 341 341 341 341 341 340 338 336 336 338 337 336 335 334 334
365 366 367 369 368 369 370 371 371 370 369 370 369 369 370 369 368 369 369 368 367 368 367 365 366 366 366 368 369 368 367 367 367 367 366 365 364 362 361 362 362 362 363 362 362 363 363 362 361 360 358 357 358 360 358 354 353 354 355 355 353 352 351 349 348 347 346 345 344 342 342 342 342 341 341 341 338 335 334 336 337 336 334 333 333
365 368 370 368 367 368 368 369 370 369 368 369 369 368 368 369 368 368 368 368 368 368 367 366 366 365 365 366 366 367 367 367 367 366 366 365 364 363 361 361 361 362 363 362 362 362 361 362 361 359 358 357 356 358 358 355 353 352 354 355 353 352 351 350 348 346 346 345 344 342 341 340 340 340 340 340 339 336 334 336 336 336 334 333 334
367 368 369 367 367 367 367 368 369 369 368 368 369 369 369 368 369 368 369 369 368 367 368 368 366 365 364 364 364 364 365 366 365 366 365 365 364 363 362 361 360 361 362 362 363 362 361 361 361 359 358 357 355 356 357 355 353 352 352 354 353 351 350 350 349 346 346 346 344 342 341 340 339 338 338 338 338 337 336 336 335 334 333 332 332
369 370 369 367 366 365 366 367 368 368 369 369 370 371 370 369 368 369 369 368 368 367 366 366 366 365 364 364 364 363 363 364 365 364 364 364 363 363 361 360 360 360 360 361 361 362 361 361 360 359 358 357 356 355 355 355 353 351 352 352 352 351 349 349 348 346 344 345 344 343 341 339 337 338 338 336 336 337 336 335 334 333 331 331 331
369 369 368 367 366 364 365 367 369 369 368 368 369 370 370 368 368 368 369 368 366 366 365 364 365 365 364 365 365 364 362 361 362 363 363 363 362 362 361 360 359 359 360 360 360 360 360 360 360 359 358 357 356 355 354 354 353 351 350 351 351 350 349 348 347 345 344 344 343 342 341 339 337 337 337 337 336 336 335 334 333 331 330 330 329
367 367 366 366 365 364 364 366 366 366 366 367 368 368 368 368 367 367 367 367 366 365 364 364 364 364 364 364 365 364 364 363 364 363 363 363 362 362 361 359 359 358 358 358 359 359 359 359 359 359 358 357 355 355 354 353 352 351 350 349 350 349 347 347 346 345 344 344 342 341 341 338 337 337 337 336 335 334 334 334 332 330 330 329 329
366 366 366 366 365 364 364 363 363 366 367 366 366 366 365 365 366 366 366 365 365 366 365 363 363 363 363 362 363 363 363 364 364 363 363 363 361 360 358 358 357 357 357 357 358 357 357 358 358 358 357 357 356 355 354 353 351 350 348 347 348 347 346 345 345 344 343 342 340 340 339 338 337 337 336 335 335 334 333 333 332 330 329 329 329
366 366 366 366 365 366 365 364 365 366 366 364 364 365 365 364 365 365 365 365 365 365 365 365 364 363 363 363 364 363 364 366 364 361 358 354 352 351 353 354 354 352 354 356 357 356 357 357 357 355 354 354 352 350 348 348 348 346 344 345 346 346 345 345 344 343 342 341 339 338 338 338 337 337 336 336 335 334 332 331 331 330 328 328 328
368 368 367 367 366 366 366 364 365 365 363 363 365 364 363 365 367 364 359 358 360 361 362 363 360 357 357 357 357 358 358 357 352 346 341 338 336 336 340 346 349 351 353 355 355 354 355 355 352 350 349 348 346 344 342 342 342 341 341 343 344 345 344 344 343 342 340 339 338 337 337 337 337 336 336 335 335 333 332 331 329 329 328 327 327
365 365 366 365 363 364 364 364 365 364 363 363 362 354 349 352 357 353 346 344 347 349 350 349 347 344 344 342 341 342 340 338 334 330 329 329 328 327 328 330 336 342 349 353 351 349 352 353 349 346 345 344 343 342 340 339 339 338 339 341 343 344 344 342 342 341 340 339 338 338 338 338 336 335 335 335 334 333 331 330 329 328 328 327 327
358 358 359 358 359 359 361 361 361 360 361 361 356 348 341 339 339 337 334 335 336 337 336 336 334 334 333 332 332 332 331 329 327 327 328 329 329 329 327 325 325 328 334 342 346 346 348 350 349 347 345 344 343 343 341 339 338 338 338 340 342 343 342 342 341 341 339 339 338 338 338 336 335 334 334 333 332 332 330 329 328 328 327 327 327
353 354 353 354 354 354 355 356 355 354 354 355 352 348 344 342 339 335 332 332 332 331 331 332 331 331 331 330 331 330 329 329 329 329 331 331 331 332 331 330 329 326 323 324 332 342 347 349 349 348 346 345 344 343 341 339 338 339 339 340 342 342 341 340 340 340 338 338 338 337 337 336 335 334 333 332 331 330 329 328 328 327 326 326 325
352 351 351 351 351 351 351 351 351 350 351 351 350 348 346 347 347 344 341 339 335 333 333 331 330 330 331 331 332 332 332 331 332 333 334 334 334 334 334 333 333 330 321 314 320 333 344 348 350 350 348 346 344 342 341 340 339 339 340 341 341 341 340 339 339 339 338 338 338 337 336 335 334 333 332 331 330 329 329 328 327 326 326 326 325
350 350 350 350 351 351 350 350 350 350 350 350 349 347 346 347 347 347 347 346 344 342 342 338 332 331 332 334 334 334 333 334 334 335 335 335 334 333 332 331 331 329 319 312 314 325 336 344 349 350 348 347 345 342 340 340 339 340 340 340 340 340 339 338 339 338 338 337 337 336 335 335 333 332 331 330 329 329 329 328 327 326 326 325 324
348 347 348 348 349 350 349 349 349 350 350 349 348 347 347 347 347 346 345 344 344 345 346 343 339 336 336 337 336 334 334 335 336 336 336 336 335 333 330 327 326 325 320 314 314 319 325 334 343 348 349 347 344 342 340 339 339 340 340 339 339 338 338 338 338 337 337 336 336 335 335 333 332 331 331 329 329 328 329 328 328 327 325 323 324
347 346 346 347 347 346 347 347 347 347 347 347 346 345 345 345 345 345 344 343 343 343 343 342 341 340 339 339 337 335 335 336 336 336 337 337 337 334 328 323 323 324 323 321 319 319 321 326 333 342 348 345 341 340 339 338 338 338 338 338 338 337 337 337 337 336 336 335 335 334 333 332 331 330 329 329 328 328 327 327 326 326 324 323 323
346 346 346 346 345 344 344 344 344 345 344 345 345 344 344 343 343 343 342 341 341 341 341 341 341 340 340 339 337 335 336 336 336 337 338 337 337 335 329 325 325 325 325 325 325 324 323 323 327 335 343 342 338 338 337 337 337 337 337 337 337 336 337 337 336 335 335 334 333 332 331 330 330 330 329 328 328 327 327 326 325 324 322 322 322
345 345 345 344 344 344 344 343 344 344 343 343 343 343 343 342 341 341 340 339 339 339 339 339 340 339 339 338 336 334 336 338 337 337 337 337 336 335 334 332 330 329 330 331 329 327 327 327 328 334 339 338 336 337 337 336 336 336 336 336 336 336 336 336 335 334 334 333 332 331 330 330 330 329 328 328 328 327 326 325 323 323 321 321 321
343 343 342 342 343 343 342 343 343 343 342 342 341 341 341 341 340 340 339 338 338 339 339 339 338 338 337 336 333 334 337 338 337 336 335 335 336 336 335 335 334 333 334 334 333 332 333 333 333 335 337 336 336 336 336 335 335 335 335 335 335 335 335 335 333 333 332 331 331 330 329 329 329 329 328 328 327 327 325 324 323 322 321 321 321
342 341 341 341 341 341 342 342 342 341 341 341 340 340 341 341 340 339 339 338 339 340 340 338 338 338 337 334 332 333 336 338 337 335 333 334 335 336 336 336 335 335 335 335 335 335 335 335 335 335 335 335 335 335 335 335 335 335 335 335 334 335 334 333 332 331 330 330 330 330 329 329 329 329 328 327 326 326 325 323 322 322 321 321 321
339 339 340 340 340 340 340 340 340 340 340 339 339 339 339 339 339 339 338 338 339 340 340 338 338 338 337 335 333 334 336 337 336 334 334 333 334 334 336 336 336 335 334 334 335 335 334 334 334 334 334 334 334 334 334 334 334 334 334 333 333 333 333 332 331 331 330 330 330 330 330 329 329 329 328 327 326 325 323 322 322 321 321 320 319
339 339 339 339 340 339 339 339 339 339 338 338 338 337 337 337 338 338 338 338 338 338 338 338 338 338 337 336 334 335 336 337 335 335 334 333 333 333 334 334 335 334 334 334 334 334 334 334 334 333 333 333 333 333 333 333 333 333 333 332 332 332 332 331 331 330 330 330 330 330 330 330 329 328 327 326 325 324 323 322 321 321 321 320 318
339 339 339 339 339 339 338 337 337 336 337 336 336 336 335 336 336 337 338 338 337 337 337 337 336 337 337 336 335 335 335 335 335 335 334 334 333 333 333 333 333 333 333 334 334 334 333 333 333 333 333 333 333 333 333 332 332 332 331 330 330 330 330 331 331 331 331 331 330 330 330 329 328 327 326 324 324 323 322 321 321 320 320 318 316
339 339 339 339 339 339 338 337 337 336 336 336 336 335 335 335 335 335 336 336 335 336 337 336 335 336 336 337 336 336 335 334 333 334 334 334 333 333 333 332 333 333 333 333 333 333 333 333 333 332 332 332 332 332 331 331 331 330 330 330 330 330 331 331 331 331 331 330 329 329 329 328 327 327 325 323 323 321 320 321 320 319 318 316 315
338 338 337 337 337 337 337 337 337 336 336 336 336 336 335 336 336 335 335 335 335 335 335 335 335 335 335 336 336 336 335 334 334 333 333 333 332 331 331 331 332 332 333 332 332 332 332 332 332 332 332 331 331 331 331 331 330 330 330 330 330 330 330 331 331 330 330 329 328 328 327 327 326 325 323 322 322 321 320 319 318 317 316 315 315
335 335 335 335 334 334 335 334 335 334 334 334 334 334 334 334 334 334 334 334 335 335 335 335 335 334 335 336 335 335 335 335 334 333 333 332 331 331 330 330 331 332 331 331 331 331 331 330 331 330 331 331 330 331 330 330 330 330 330 329 329 329 329 329 328 329 328 327 326 326 325 325 323 322 321 321 320 319 319 318 317 316 315 315 315
333 332 332 332 332 332 332 332 332 333 332 331 331 331 330 330 331 331 331 332 332 333 333 334 334 334 334 334 334 334 334 334 334 333 332 332 331 332 331 331 331 331 331 331 331 330 330 330 329 329 329 329 329 328 328 328 327 327 326 326 326 325 325 325 325 325 325 324 323 323 323 323 322 321 321 320 319 318 317 317 316 316 315 314 314
330 330 330 330 330 330 330 330 330 331 330 330 329 328 328 328 328 328 328 328 328 329 330 331 332 333 333 333 334 334 334 333 333 333 333 332 332 332 332 332 332 332 331 331 331 330 329 329 328 328 327 326 325 325 325 324 323 323 322 322 322 321 321 321 322 322 321 322 321 322 321 321 321 320 319 318 318 317 317 317 316 316 315 315 314
327 327 327 327 327 328 329 328 328 328 328 328 327 326 326 325 324 324 324 324 324 325 326 327 328 329 328 328 330 331 332 332 332 332 331 332 331 331 331 331 331 331 331 331 330 329 329 328 327 326 325 324 323 323 322 321 321 320 320 319 319 319 319 319 319 319 320 319 319 319 320 319 319 319 318 317 317 317 316 316 316 315 315 314 314
323 324 324 324 324 325 325 325 325 325 325 325 325 324 323 323 321 320 320 320 320 321 321 321 321 322 322 322 323 325 326 327 329 329 329 329 329 329 329 328 329 330 330 330 329 329 328 327 326 325 323 322 322 321 321 320 320 319 318 318 318 318 319 319 319 318 319 318 318 318 319 319 318 318 317 317 317 316 316 316 315 315 314 313 313
322 321 321 321 321 321 321 321 321 321 321 321 321 321 321 320 318 317 316 316 316 316 317 317 317 316 316 317 318 319 320 322 323 323 324 325 326 327 327 327 327 327 328 328 328 327 326 325 324 323 322 321 321 320 320 319 318 316 316 315 315 314 314 314 315 315 315 316 316 316 316 317 317 317 316 316 315 316 315 314 314 313 313 313 312
Wind_Speed
34 34 34 33 32 32 32 32 31 30 29 29 29 27 27 27 26 24 24 23 23 23 24 24 23 23 23 23 23 23 22 22 22 22 22 21 20 19 19 20 21 20 19 18 18 17 17 18 18 17 16 15 14 14 14 14 14 13 13 13 13 12 12 11 9 8 8 8 9 8 8 9 10 10 10 10 10 11 10 9 11 11 10 10 11
36 35 34 34 34 33 33 32 32 31 30 30 30 28 27 27 26 25 24 24 24 24 24 24 24 24 24 23 23 23 23 23 23 23 23 22 22 21 20 22 22 21 20 20 20 18 18 18 19 18 17 17 16 15 15 15 15 15 15 14 14 14 14 13 12 10 10 10 11 10 9 10 10 10 11 11 10 10 10 9 9 10 10 10 10
36 35 34 34 35 34 33 33 32 32 31 30 30 30 28 27 26 26 26 24 24 25 25 25 25 25 25 24 23 23 23 24 23 24 24 24 24 23 22 23 23 23 22 22 21 20 19 19 19 19 19 19 18 17 16 16 16 16 17 16 15 15 15 15 14 12 11 11 11 11 11 11 12 11 11 11 11 10 10 10 10 10 10 10 9
36 35 34 34 35 35 34 33 32 33 32 31 31 31 30 28 27 27 27 26 25 25 25 25 25 25 26 25 24 24 24 24 25 25 25 25 25 25 24 24 24 25 24 23 22 22 22 21 21 21 20 20 20 19 18 18 18 17 17 17 16 16 15 16 16 14 12 12 12 12 12 12 12 12 12 12 11 11 11 11 11 11 11 10 10
35 35 35 35 35 35 34 34 34 34 33 32 32 33 31 29 28 28 28 28 26 25 25 26 26 26 26 26 25 25 25 25 26 26 26 26 26 25 25 25 25 25 25 24 24 23 23 23 22 22 22 22 21 21 21 20 19 19 18 18 18 17 16 16 17 16 14 13 12 12 12 12 13 13 13 13 12 12 12 12 12 12 11 11 11
35 35 35 35 35 35 35 35 34 35 35 34 33 33 32 31 30 28 28 28 28 27 26 26 27 27 26 26 26 27 26 26 27 27 26 26 26 25 25 25 25 25 26 25 25 25 25 25 24 23 24 24 23 23 23 23 22 21 20 19 19 18 17 17 17 17 16 14 13 12 13 13 13 13 14 14 13 12 13 13 14 14 13 12 12
35 35 34 34 34 35 36 36 36 36 36 35 34 33 32 32 31 29 28 28 29 29 28 27 27 28 28 27 27 27 28 28 28 28 28 27 27 26 25 25 25 25 26 26 26 26 26 26 26 26 26 26 26 25 24 24 24 23 22 21 20 19 18 18 17 17 16 15 14 14 14 14 15 15 14 14 14 13 13 13 13 13 13 13 12
34 34 33 33 34 35 35 35 36 36 36 35 35 33 33 33 32 31 29 28 29 30 30 29 28 28 28 29 28 28 29 29 29 29 29 28 27 27 26 25 25 25 26 26 27 27 27 27 28 28 28 29 28 27 26 26 25 24 24 23 21 21 19 18 18 18 17 16 15 15 15 15 15 15 14 14 15 15 14 14 13 12 13 13 12
33 33 32 33 33 34 34 33 34 35 34 33 34 34 33 32 32 31 30 29 29 29 30 30 29 28 29 29 29 29 29 30 30 30 29 29 28 27 26 26 26 26 26 27 28 28 28 28 28 29 31 31 31 30 29 28 27 26 25 25 23 22 21 19 19 19 18 17 16 15 15 15 15 16 15 16 17 16 15 15 14 13 12 12 12
32 31 31 31 31 32 32 32 32 33 33 33 33 34 33 32 32 32 32 31 29 29 29 30 30 29 29 29 29 30 30 30 32 33 32 31 29 28 27 27 28 28 27 27 28 28 29 29 29 30 32 34 34 34 33 32 31 28 26 26 25 24 22 21 20 19 18 17 17 16 16 16 16 17 17 17 17 16 15 16 15 13 11 11 11
30 31 30 29 29 30 31 31 31 31 33 33 32 32 32 32 31 32 32 32 30 29 29 29 30 30 29 30 30 30 30 31 34 36 37 35 32 29 28 28 28 29 29 28 28 29 29 29 29 30 34 36 36 37 37 36 35 32 28 27 28 26 24 23 21 20 19 18 17 17 17 16 17 17 17 18 17 17 16 15 14 12 11 11 10
29 30 28 27 27 28 29 29 29 30 31 31 31 30 30 30 30 30 31 31 31 30 29 29 30 30 29 30 31 31 31 33 36 38 40 41 38 32 28 28 28 29 29 29 29 28 29 30 29 29 32 36 37 38 39 38 37 36 33 30 29 29 27 25 22 21 20 19 18 18 18 17 17 17 17 17 17 18 16 14 14 13 11 10 10
28 28 28 27 27 27 27 27 27 28 29 29 29 28 29 30 30 30 29 29 29 29 29 29 29 30 30 30 31 31 31 33 37 40 41 43 43 39 32 28 28 29 29 30 30 29 29 29 30 29 29 33 36 37 38 41 39 37 36 34 31 31 31 28 25 22 20 19 19 19 18 17 17 17 18 17 16 16 15 13 13 13 11 11 11
27 28 29 28 27 27 27 27 27 26 26 27 27 27 28 29 30 29 28 29 29 29 29 29 29 30 30 30 30 30 30 31 35 40 42 42 44 44 38 31 28 29 29 30 30 30 30 30 30 30 29 30 35 34 33 38 40 39 38 38 34 32 32 32 29 26 24 21 20 20 20 19 18 17 16 16 16 16 15 14 13 13 12 11 10
26 27 29 29 28 28 28 27 27 26 25 26 27 28 28 28 29 29 27 28 28 28 28 29 29 29 29 30 30 30 30 31 34 37 41 42 43 45 43 35 30 30 30 30 31 31 32 32 31 31 29 30 33 34 31 32 37 40 40 39 35 32 32 33 33 31 28 25 22 20 19 19 19 17 15 15 16 17 15 12 12 12 11 10 9
26 27 28 29 29 28 28 27 26 26 26 27 28 28 28 28 28 28 27 26 26 27 27 28 28 28 28 29 30 30 30 32 34 36 39 41 42 45 46 40 33 31 30 30 31 32 32 33 31 31 31 29 31 36 35 31 31 35 37 35 33 30 30 32 34 33 31 29 26 22 19 19 19 18 17 16 15 15 14 12 11 10 9 10 10
27 27 27 29 29 28 27 27 26 27 27 28 29 29 28 27 26 26 26 26 25 25 25 26 26 27 29 29 30 31 31 32 35 37 39 41 42 45 48 43 35 33 32 30 31 32 33 34 32 30 30 30 32 37 40 37 32 31 32 31 30 30 28 29 32 35 35 32 28 26 24 22 19 19 21 20 16 15 14 13 13 12 10 10 10
28 27 26 26 27 26 27 27 27 28 28 28 28 27 26 25 25 25 26 26 26 25 24 24 25 27 28 30 31 31 31 33 37 38 40 42 43 46 48 42 36 34 34 32 32 32 33 35 35 33 30 31 35 39 43 42 36 31 30 29 28 29 28 26 27 31 35 34 30 28 27 26 22 18 20 22 19 17 16 14 13 13 12 11 11
27 26 25 24 25 25 26 27 27 27 28 27 26 25 25 24 24 25 25 25 26 26 25 25 25 26 27 29 31 32 31 32 36 39 41 42 43 47 46 39 34 34 34 33 33 32 32 34 37 39 36 34 36 40 44 46 40 33 31 30 28 29 29 27 27 27 30 32 33 31 29 27 24 20 20 21 19 19 19 17 14 13 12 12 12
24 24 23 22 23 24 24 25 26 25 25 25 24 24 24 24 24 24 25 25 24 25 25 25 25 25 25 26 28 31 32 33 35 37 40 42 45 48 45 37 33 34 33 32 31 30 32 34 37 42 44 41 39 40 44 48 43 35 32 32 31 30 28 29 30 28 27 28 30 31 29 26 24 22 21 21 22 22 22 20 16 13 13 12 11
22 22 22 22 22 23 23 24 24 23 23 23 23 23 23 23 23 24 23 22 22 23 23 24 24 24 25 25 26 28 30 32 34 36 39 42 45 48 48 41 36 32 29 29 30 30 32 35 37 41 46 47 45 42 44 47 45 37 34 33 33 31 29 29 32 30 27 25 26 27 26 25 24 22 21 21 23 25 24 22 18 15 14 13 12
20 21 22 21 22 22 22 21 22 22 21 21 22 22 21 21 21 21 21 20 21 21 21 21 21 22 23 24 25 27 28 29 32 34 37 40 43 47 50 45 37 30 27 29 31 31 33 35 36 40 45 49 50 47 44 46 47 41 36 34 32 33 31 29 30 31 28 25 24 24 25 26 25 23 22 21 21 22 22 21 19 17 16 15 13
18 18 19 20 20 20 20 20 20 19 19 20 20 19 19 19 18 19 19 18 19 20 21 20 20 21 22 23 25 27 28 28 30 33 34 36 39 44 49 48 41 35 32 33 32 31 32 32 33 36 41 46 51 50 46 46 49 45 38 34 33 36 35 29 28 30 29 25 24 24 25 26 25 24 24 22 20 21 21 20 19 19 18 16 13
16 16 17 18 18 18 18 18 18 17 17 18 18 17 17 18 17 17 17 18 18 19 20 20 19 20 21 22 23 25 26 27 29 32 35 37 39 42 46 48 46 42 39 37 35 31 31 31 31 33 36 40 47 52 49 47 49 47 41 36 36 37 36 30 27 30 30 26 24 23 24 26 25 24 24 24 23 23 23 20 20 20 18 16 14
15 15 15 16 16 16 16 16 16 15 16 16 17 16 16 16 16 16 17 18 19 18 19 19 19 19 20 21 22 23 24 25 26 28 30 34 37 40 42 46 48 48 46 45 42 37 34 32 31 31 33 36 43 50 52 49 48 48 44 40 38 39 37 31 27 29 30 27 24 23 24 25 24 22 24 25 23 23 23 20 18 17 16 15 14
13 13 13 14 14 15 15 15 15 15 14 14 14 14 15 16 16 16 16 17 17 16 17 17 17 18 19 19 20 21 21 21 22 24 25 27 32 37 40 43 47 49 51 53 50 46 41 37 33 32 32 34 41 48 52 50 48 47 46 43 41 40 38 33 29 31 31 27 26 25 25 26 26 23 23 22 19 19 21 19 16 15 15 15 15
11 11 12 12 13 14 14 14 14 14 14 13 13 13 14 14 14 14 15 15 15 15 16 16 16 17 17 18 19 19 19 19 20 20 17 16 20 28 35 42 47 49 54 56 55 52 47 42 40 37 33 33 40 47 51 51 50 49 49 47 43 40 39 36 33 32 32 30 28 26 25 27 27 23 19 20 19 18 19 19 16 15 16 16 15
11 11 11 11 11 12 12 12 13 13 13 13 11 11 12 12 13 13 11 10 11 12 13 14 14 14 13 13 14 14 15 16 16 15 15 14 15 18 24 34 42 49 54 57 59 57 50 43 40 36 32 34 40 44 46 47 49 49 50 48 43 39 39 38 34 33 34 32 30 29 26 26 27 23 18 19 19 18 19 19 17 16 17 17 15
12 12 11 11 11 11 10 11 11 12 13 12 8 5 3 4 5 4 4 3 1 3 4 5 6 8 8 8 9 10 12 14 17 20 23 23 22 21 19 24 33 41 47 53 56 54 45 37 34 32 34 39 42 41 41 44 46 47 47 45 41 39 40 39 35 34 36 33 32 33 30 27 28 27 22 19 19 19 20 20 19 18 18 18 16
13 12 11 11 10 10 11 10 9 9 10 10 10 11 10 7 6 7 9 7 4 2 2 3 6 8 8 8 8 8 10 14 19 22 23 24 26 26 25 24 26 33 41 46 48 45 38 35 35 37 40 42 41 40 40 42 44 45 44 43 40 37 39 39 36 36 38 37 34 34 32 28 29 29 25 21 20 20 21 22 21 19 17 16 14
11 11 10 9 9 9 9 8 7 7 7 8 9 10 12 12 11 11 11 10 9 8 6 5 5 6 7 8 9 10 12 16 19 21 23 25 27 29 31 31 30 31 35 39 41 40 37 36 37 38 40 41 40 41 41 42 43 44 43 42 41 38 38 38 37 38 40 37 34 33 31 29 29 29 25 22 21 22 22 23 21 18 16 15 13
12 12 11 11 11 11 11 10 10 9 9 8 7 7 9 11 12 13 13 13 12 12 10 9 8 8 8 8 9 12 15 17 20 23 27 30 32 34 37 38 39 38 33 31 35 39 41 40 39 40 40 40 41 43 43 41 43 44 44 43 42 41 41 41 40 40 40 37 34 33 31 29 29 29 26 24 23 23 23 23 22 20 18 16 14
15 15 14 14 14 13 12 12 11 10 9 9 8 6 6 7 8 9 10 10 10 10 9 8 8 8 7 8 11 15 17 20 24 27 31 35 38 41 42 42 44 44 35 29 34 39 42 43 42 43 44 43 44 46 45 45 45 46 46 47 46 43 43 43 41 38 38 37 34 33 31 29 29 29 26 25 25 24 24 25 24 21 19 18 15
16 16 15 15 14 13 12 11 11 10 10 8 8 8 8 7 6 6 6 5 5 5 5 7 8 9 9 11 14 16 18 21 24 27 31 35 37 39 40 41 44 42 32 27 32 35 38 40 42 44 45 46 46 46 46 48 50 48 46 47 48 48 48 47 43 38 37 35 32 30 30 28 28 27 25 25 26 24 23 24 25 23 20 17 14
16 15 15 14 13 12 12 11 11 10 9 8 8 8 8 7 6 6 5 4 4 3 3 6 9 11 13 15 16 18 19 22 24 27 30 34 36 36 34 32 30 27 21 21 28 33 37 40 42 43 43 43 43 43 42 43 46 48 48 49 48 47 47 45 42 39 38 35 31 30 30 29 28 28 27 27 27 25 22 23 26 25 21 16 13
14 14 14 13 13 13 12 12 11 10 9 8 8 9 8 7 7 6 6 6 6 5 4 6 9 12 13 14 16 19 21 22 24 27 29 33 35 32 24 19 18 18 18 19 24 30 35 40 42 43 42 38 35 33 32 31 31 32 36 41 45 45 44 42 39 37 36 34 30 30 31 30 29 30 28 27 27 25 23 23 24 21 16 14 13
12 12 12 12 13 13 13 12 11 10 10 9 9 9 9 8 7 7 7 7 7 6 6 8 10 11 12 14 17 21 23 23 24 25 28 30 31 25 17 14 16 18 20 23 26 29 30 34 39 39 32 27 29 30 31 34 34 32 30 34 42 45 44 43 41 38 36 33 31 31 31 29 29 30 27 25 25 24 24 24 21 17 14 14 14
13 14 13 12 12 12 12 12 10 9 9 10 9 9 8 7 6 6 6 7 6 6 7 8 9 10 12 15 18 21 22 21 21 23 26 28 29 25 18 14 12 13 17 21 23 26 25 26 34 35 26 24 29 32 34 36 40 42 40 38 40 42 41 39 38 37 37 34 31 31 30 28 28 29 26 24 24 25 25 23 19 15 14 14 14
15 14 13 12 12 12 12 12 10 10 10 9 9 8 7 7 6 6 6 6 6 6 7 7 9 10 12 15 18 20 19 17 18 21 24 26 26 22 16 13 12 14 19 21 14 7 13 19 11 19 30 34 35 38 40 36 34 35 36 35 37 39 39 36 34 34 35 34 31 30 30 28 26 26 26 24 23 23 24 22 17 14 14 14 14
13 12 11 11 12 12 12 12 11 11 10 9 9 9 8 7 7 6 6 6 6 5 6 7 9 9 11 15 18 17 15 14 16 18 20 22 22 19 15 14 14 15 18 22 23 23 27 37 37 21 22 31 32 34 38 38 35 33 32 32 34 35 35 35 34 33 33 32 29 28 28 26 24 24 25 24 21 19 19 18 15 14 14 13 13
12 12 12 12 12 12 12 12 11 11 10 8 8 8 7 7 7 6 6 6 6 6 6 7 8 8 10 14 16 13 11 12 13 14 17 20 20 19 19 17 15 14 16 18 21 24 30 39 46 43 37 34 33 32 35 37 36 33 31 31 32 32 32 32 31 30 30 29 28 26 25 24 24 23 23 23 20 16 14 14 14 15 15 13 12
12 12 12 12 12 12 12 11 10 9 9 8 8 7 6 6 6 6 6 6 6 6 6 7 8 8 10 12 14 12 10 10 11 12 14 16 17 18 19 17 14 14 15 15 18 23 29 36 40 41 39 37 35 33 34 34 33 33 33 32 31 30 30 29 27 27 26 25 24 23 22 22 22 21 21 21 19 16 13 14 15 15 15 14 14
12 12 12 12 11 11 10 10 9 9 9 8 7 6 6 6 6 6 6 6 6 6 7 8 8 9 9 10 13 13 10 10 10 11 11 13 13 14 15 15 14 13 13 15 18 22 27 31 33 34 36 36 35 34 33 33 33 32 32 31 30 29 28 26 25 25 24 22 21 22 21 19 19 19 19 19 18 16 14 14 14 13 13 14 15
11 11 12 11 11 12 12 11 11 10 10 8 7 7 8 8 7 6 6 6 7 7 7 8 9 9 9 9 11 12 11 10 9 9 10 11 13 13 12 11 12 12 13 15 18 22 25 28 30 30 31 32 32 32 32 33 32 31 30 29 27 25 24 24 24 24 23 20 19 20 19 17 18 19 17 15 15 15 14 13 13 13 13 15 15
11 11 12 12 12 13 14 13 13 11 10 9 9 10 11 12 11 10 10 10 10 10 9 9 8 9 9 10 10 10 10 9 9 9 9 10 12 14 13 11 11 12 13 15 18 21 24 26 27 28 29 28 28 28 28 27 27 27 26 26 24 21 20 21 21 21 20 19 19 20 20 20 19 18 15 13 14 14 13 12 14 15 15 15 15
12 12 13 13 14 14 14 14 14 13 12 12 12 12 12 12 12 13 13 13 13 13 13 11 10 10 10 10 10 10 9 8 8 9 10 10 11 12 12 10 10 10 11 12 14 17 19 22 24 25 25 25 25 25 24 23 22 21 20 19 18 16 16 16 16 17 16 16 16 16 17 16 16 14 13 13 13 13 13 13 14 16 15 14 14
13 14 14 14 14 14 14 14 14 13 13 13 13 13 13 12 12 13 14 14 14 14 14 13 12 12 11 10 10 11 11 10 9 8 9 11 11 10 9 9 9 9 10 10 10 12 14 17 20 22 23 23 22 22 21 20 19 17 16 15 15 15 14 14 14 13 12 11 10 10 10 11 12 13 13 13 12 13 14 14 13 14 14 14 14
14 14 15 15 15 15 14 15 14 13 13 13 13 13 14 14 14 14 15 15 15 14 14 13 13 14 13 12 11 10 10 10 9 9 9 10 11 11 10 10 9 9 9 9 10 11 13 15 17 19 20 21 21 20 20 19 18 17 17 17 16 17 17 15 13 12 11 11 10 10 11 11 11 12 13 13 13 13 14 14 13 14 15 14 13
17 17 17 17 17 16 15 14 14 13 13 13 13 14 15 16 16 16 15 16 16 15 15 15 14 14 15 16 15 13 12 11 10 11 11 11 11 11 12 12 10 9 8 9 10 11 12 14 16 17 18 19 19 19 18 18 17 17 18 17 17 18 18 15 13 13 12 10 9 9 9 10 11 12 12 13 13 13 14 14 14 15 14 13 12
21 20 20 19 18 17 16 15 15 15 14 14 15 16 16 16 17 17 17 17 17 17 17 18 17 17 17 17 18 18 18 17 15 15 14 13 11 10 10 12 14 13 10 8 9 11 12 14 15 16 16 17 17 16 16 16 16 16 15 14 14 15 14 13 13 13 12 9 7 6 7 7 9 12 12 12 13 14 14 14 14 14 13 12 11
22 21 21 21 20 19 18 18 17 17 17 17 17 17 17 17 17 17 17 17 17 17 17 18 19 21 23 23 22 22 22 21 20 21 21 20 17 13 10 8 10 11 11 9 10 11 12 14 14 15 15 14 13 13 14 15 14 12 12 11 11 10 9 8 8 9 9 7 5 4 5 6 7 10 12 12 12 13 13 13 13 13 12 11 11
Wind_Direction
188 189 191 193 193 194 196 198 200 202 203 204 207 210 211 212 213 214 214 214 213 211 210 210 210 210 211 210 209 208 206 205 205 202 202 202 203 208 208 204 205 208 210 211 212 214 214 214 215 214 213 214 215 213 212 209 206 209 210 207 210 212 209 215 226 231 224 221 229 230 219 214 212 210 213 214 219 232 238 233 234 241 243 246 254
190 190 190 192 193 194 195 197 198 200 202 203 206 208 210 211 211 212 213 213 212 211 210 210 210 209 212 212 210 209 206 205 205 203 203 202 201 206 208 204 205 206 208 211 212 212 213 213 214 213 212 213 215 214 213 211 208 209 210 209 210 210 208 210 218 228 228 222 224 230 228 223 218 211 213 219 222 227 231 229 229 235 239 243 251
191 189 189 191 193 194 195 196 197 198 200 202 205 208 210 210 209 209 212 212 211 211 210 210 210 208 210 210 209 208 206 205 206 206 205 204 202 204 206 206 205 205 206 210 212 212 212 213 213 212 210 212 213 214 215 213 212 211 210 211 212 210 208 208 213 223 229 225 221 225 226 222 223 222 219 223 227 228 228 231 236 239 240 241 247
190 189 189 191 192 193 194 195 197 198 200 203 206 209 210 210 209 208 210 212 211 210 210 210 210 207 208 208 206 207 207 205 207 209 208 207 205 205 206 206 206 206 207 209 211 211 211 211 213 211 209 210 211 211 214 214 213 213 213 212 212 213 210 208 212 219 227 230 225 223 225 222 223 227 226 223 225 228 230 234 238 242 241 240 242
191 190 190 192 193 193 194 196 198 200 203 205 208 210 211 211 211 209 209 212 213 210 209 209 209 207 206 207 205 205 206 206 206 209 211 211 209 208 207 206 207 208 209 210 211 211 211 210 211 211 209 209 209 210 211 212 212 212 213 212 211 212 212 209 211 215 221 231 230 223 225 228 227 226 224 223 223 224 228 233 234 236 238 239 241
191 190 191 192 192 193 194 196 199 202 204 207 209 210 212 212 212 210 209 211 212 211 209 208 207 207 206 206 205 205 206 206 207 208 211 212 212 212 210 208 208 209 210 212 212 211 211 211 210 211 211 210 209 209 210 210 211 212 212 212 210 209 211 211 210 212 217 226 231 227 225 226 228 227 223 222 224 223 224 229 232 232 231 234 240
191 190 191 192 192 193 194 195 198 202 204 207 208 210 211 212 212 212 210 210 212 212 212 209 207 206 205 205 205 205 205 207 208 208 209 211 212 212 213 212 210 210 211 212 214 214 213 212 211 211 212 212 210 208 208 208 210 211 211 210 210 208 210 211 210 210 214 218 224 228 227 225 224 227 226 222 225 228 226 227 230 229 226 230 238
191 190 190 191 192 193 194 195 198 202 204 205 207 209 210 211 212 211 210 210 211 212 213 211 208 206 205 205 205 205 206 207 208 207 208 210 211 212 213 213 213 213 213 213 215 217 216 215 215 213 212 212 211 208 207 206 207 210 210 209 209 209 209 210 210 210 212 215 218 222 226 227 223 225 225 219 219 225 224 225 230 229 226 227 230
191 190 190 192 192 191 192 194 197 201 202 202 204 206 208 210 210 211 211 211 212 213 214 213 210 207 206 206 206 206 207 208 209 208 207 207 209 211 213 214 215 215 214 215 216 218 219 219 218 216 214 213 212 210 208 206 205 206 207 206 207 208 209 210 209 209 211 214 216 217 222 227 223 220 220 216 216 221 222 224 230 230 228 226 226
191 192 192 193 192 189 189 192 194 197 199 200 201 203 206 207 208 210 211 212 212 212 213 214 213 210 207 205 206 208 209 210 212 212 211 208 207 209 212 213 216 217 216 216 217 219 221 222 221 219 217 216 216 214 211 209 208 207 206 206 205 205 207 209 210 210 211 213 215 215 217 223 223 220 220 220 220 222 224 224 226 226 227 230 233
192 194 195 192 190 189 189 191 192 193 197 198 199 200 202 205 207 209 211 212 213 213 213 214 215 214 210 207 208 209 210 213 215 215 215 213 210 209 211 212 214 217 218 218 218 219 220 222 224 222 219 217 218 217 215 212 211 211 210 208 207 205 205 207 209 209 211 213 215 217 218 221 221 220 221 224 222 222 224 224 224 226 227 232 238
194 195 196 192 189 190 190 191 191 192 195 196 197 197 199 203 205 207 209 210 211 213 213 213 214 215 214 211 211 212 213 216 217 217 217 217 215 212 212 214 215 216 219 220 220 220 220 221 223 223 220 217 217 218 217 215 214 214 214 213 211 211 209 209 209 210 211 213 216 219 220 221 220 221 224 225 222 221 222 223 229 231 227 231 243
194 194 195 193 191 190 190 191 192 193 194 194 195 196 197 201 203 205 207 208 209 211 212 212 213 214 215 215 214 215 216 217 218 218 218 219 218 216 213 215 217 217 218 220 221 221 220 220 221 222 221 217 214 215 216 216 215 216 217 217 215 214 215 214 213 213 213 215 219 221 221 221 222 223 225 227 224 218 217 221 231 235 230 233 243
193 191 193 194 191 190 190 192 193 194 193 192 194 196 198 201 203 204 206 207 208 209 211 213 213 214 216 218 218 219 220 219 219 220 220 220 220 218 216 216 219 220 219 219 220 221 220 218 219 221 221 219 213 209 210 213 214 216 218 218 217 217 218 218 217 216 215 217 222 224 224 223 225 225 224 224 222 218 217 220 226 232 234 233 233
194 190 192 193 191 190 190 192 193 192 191 192 194 198 201 202 203 204 206 207 209 209 211 214 215 215 217 219 222 223 223 222 221 221 222 222 221 220 218 218 221 223 222 220 220 221 220 219 219 218 218 217 211 205 202 204 209 213 215 217 217 217 218 218 218 217 217 219 223 225 226 226 226 228 225 218 216 219 223 225 224 226 227 226 228
195 192 192 193 192 191 191 191 191 191 191 193 196 200 203 203 202 204 207 210 211 211 213 216 217 218 219 220 223 225 225 225 224 222 222 222 221 220 219 219 222 224 224 222 221 221 220 219 218 218 216 215 211 207 204 201 201 206 211 212 213 215 217 219 219 218 217 220 223 226 230 230 227 225 222 217 214 218 225 227 222 218 220 229 239
197 194 193 194 193 193 192 191 191 192 192 195 199 201 203 203 203 204 208 211 214 214 216 218 219 220 221 221 223 226 227 227 226 224 223 221 219 218 218 218 221 225 226 225 223 222 221 219 217 216 214 214 212 208 205 202 197 199 204 205 207 212 216 217 219 220 219 219 221 226 231 233 232 226 222 220 214 212 219 224 222 221 224 231 240
197 195 194 195 195 194 194 193 193 194 195 197 200 202 202 204 204 204 207 212 216 217 217 219 221 221 223 223 223 225 228 229 227 226 224 221 218 218 217 216 219 223 226 227 226 225 224 220 217 215 214 216 216 209 205 203 198 195 200 201 202 207 210 209 212 217 219 219 220 223 228 232 232 226 220 218 215 215 221 225 225 228 230 234 245
195 196 196 195 196 196 196 196 195 196 198 199 201 201 201 203 203 204 208 212 216 218 219 221 222 223 224 225 226 227 228 231 230 228 225 222 219 217 216 214 218 222 224 226 227 227 227 224 220 217 215 216 218 213 207 204 200 195 198 202 204 206 206 206 209 208 208 212 216 218 222 225 224 221 217 218 220 222 224 225 228 233 238 243 248
192 195 196 195 196 196 196 197 197 198 199 199 201 201 201 202 203 204 207 212 215 217 219 222 224 226 227 228 228 229 230 232 233 231 227 224 221 218 214 212 216 220 222 225 227 227 228 228 226 222 218 216 219 217 210 206 204 198 197 203 208 208 204 206 209 204 196 200 209 212 214 216 216 217 220 224 226 225 222 224 229 232 236 242 243
189 192 194 195 195 195 195 196 197 199 200 199 201 202 202 203 205 205 208 211 214 216 219 223 227 229 231 231 231 232 232 232 234 234 230 226 223 219 215 214 217 219 221 225 227 228 229 228 226 225 221 217 219 219 212 209 207 203 202 205 206 205 201 201 205 203 193 193 203 207 208 211 212 214 218 221 224 222 219 221 224 224 227 232 234
188 189 191 193 194 195 196 196 195 198 201 200 200 202 203 204 206 207 209 212 214 217 219 221 228 234 237 238 239 240 240 238 237 238 235 231 227 223 220 220 221 222 225 230 230 228 228 226 225 227 224 218 217 218 215 210 207 206 207 208 204 202 200 199 201 199 189 186 197 203 206 209 212 213 213 212 214 215 216 217 219 219 222 226 229
183 184 186 190 193 195 195 194 193 196 198 197 197 199 200 203 205 206 209 213 217 221 222 224 229 238 243 244 245 246 247 245 244 243 239 235 232 228 226 226 224 222 227 234 235 232 232 232 230 229 226 220 216 217 215 210 208 207 207 205 203 201 199 198 197 192 183 181 190 198 203 205 207 209 210 209 209 211 213 214 214 215 219 221 224
174 176 181 186 190 193 194 193 192 193 193 193 195 197 198 201 204 205 209 216 221 225 228 229 232 238 243 246 249 250 249 249 248 246 243 239 237 234 232 230 227 224 227 234 239 240 241 242 240 234 229 224 219 218 217 211 208 206 204 203 202 199 197 199 195 187 182 182 186 193 199 202 204 206 207 209 211 209 208 210 214 215 215 214 215
167 171 176 181 186 189 189 189 189 189 190 191 194 197 199 202 206 208 212 220 225 229 233 233 233 238 243 245 249 251 253 254 255 253 250 246 242 240 237 234 230 227 228 234 241 244 244 246 246 242 237 229 220 217 216 213 209 205 202 201 200 196 195 197 191 183 182 183 184 189 194 199 204 207 208 211 210 200 197 205 217 219 211 204 206
164 169 172 174 181 185 185 187 187 187 189 190 191 194 200 206 209 211 214 219 224 229 234 236 237 241 246 248 250 253 257 263 265 265 263 257 249 245 242 239 235 232 231 235 240 242 242 242 244 247 243 231 219 214 214 213 210 206 202 200 198 195 193 193 186 180 182 183 183 187 190 194 201 208 211 210 203 188 186 195 207 212 206 198 196
158 163 166 167 175 181 183 185 183 180 183 185 186 192 199 206 211 213 216 222 225 227 231 234 238 243 248 253 256 258 260 262 262 266 273 272 260 251 244 239 236 232 231 234 237 239 239 239 241 246 245 232 220 216 214 211 207 204 202 200 197 193 192 192 187 181 180 181 182 184 184 187 196 205 206 199 192 187 188 192 199 205 202 195 193
148 153 157 156 162 169 172 173 171 171 178 183 183 189 197 203 208 211 216 224 228 231 235 237 241 247 254 263 273 279 280 277 278 293 316 322 305 283 261 248 241 234 231 232 233 235 237 237 237 238 232 219 211 208 207 205 203 202 202 200 197 193 190 190 187 181 179 180 179 178 178 182 190 196 192 185 186 189 190 193 198 200 197 194 195
135 136 137 138 145 152 156 163 165 167 175 172 145 108 118 168 176 154 115 105 180 239 258 267 281 292 303 314 317 313 308 305 308 315 319 317 311 305 290 269 256 248 244 240 236 233 233 231 226 219 210 204 200 198 197 197 197 200 201 199 196 192 188 187 184 178 178 179 177 178 180 180 180 183 179 176 182 189 190 194 201 202 200 200 201
120 121 124 128 136 141 143 152 157 155 156 144 110 83 74 76 84 79 68 57 41 19 355 330 323 323 328 334 332 329 328 326 326 325 321 315 311 307 300 288 271 259 256 251 242 235 230 224 218 211 204 200 198 197 195 192 192 194 196 197 196 191 186 185 181 175 177 179 178 180 182 176 170 173 174 172 180 189 192 196 202 206 206 205 205
111 115 115 102 96 107 116 118 116 111 106 101 99 97 90 80 73 70 71 69 64 60 56 42 23 12 5 356 345 342 340 333 329 327 323 318 315 309 305 302 291 275 263 255 245 236 229 225 221 215 208 203 202 200 197 192 191 190 190 192 194 191 184 182 179 175 176 178 178 180 180 172 166 169 173 173 178 185 189 192 200 205 206 207 210
111 113 111 98 92 100 106 102 102 106 105 100 103 116 114 99 83 73 73 74 70 69 72 68 59 51 38 17 353 339 332 327 324 324 322 320 315 310 308 305 301 296 286 267 249 237 229 225 224 219 213 207 204 202 198 192 190 189 186 187 189 187 182 179 178 177 176 175 176 179 179 173 167 167 172 175 178 179 182 188 196 201 205 211 216
112 113 113 111 109 107 104 100 100 103 105 105 104 104 107 107 101 92 87 78 64 61 63 58 53 53 43 15 354 342 334 329 326 324 321 319 316 314 312 305 298 298 294 271 250 240 233 228 225 221 217 211 205 201 195 190 189 188 188 186 183 179 176 175 175 176 175 174 175 177 177 173 168 166 170 176 178 179 181 186 194 203 207 211 214
103 103 105 106 103 97 92 91 89 85 84 87 93 89 83 80 84 91 97 92 76 63 42 21 19 19 9 354 347 342 336 331 329 325 324 325 324 320 314 304 297 297 290 263 247 245 241 236 232 227 221 215 208 200 193 189 187 186 186 185 179 173 170 170 170 171 172 174 175 175 175 172 166 165 168 171 175 181 182 184 195 207 210 207 207
90 89 89 91 89 85 82 79 77 76 73 72 77 81 81 81 81 79 74 61 49 47 34 8 352 346 347 346 343 342 340 337 334 331 331 334 333 327 317 306 298 297 287 258 246 245 244 242 240 235 228 219 210 202 194 186 183 182 183 181 174 166 162 162 164 166 168 173 176 175 173 170 165 165 168 168 174 184 189 191 202 210 205 196 200
91 87 84 82 82 81 78 74 72 70 69 70 75 76 72 68 67 67 63 47 26 15 17 0 339 335 343 345 340 342 347 346 340 338 338 339 336 331 322 311 305 304 296 276 260 253 250 247 245 242 235 221 205 195 187 178 173 177 180 172 161 154 153 157 161 163 165 168 171 169 167 167 165 165 168 170 176 187 198 205 211 212 200 190 199
94 93 90 89 89 87 84 81 78 76 71 69 72 75 71 67 62 56 53 46 28 11 2 352 340 339 347 347 341 342 346 345 341 343 348 349 347 343 334 320 311 305 299 290 278 269 264 260 257 253 239 209 185 174 170 166 161 160 164 160 151 149 154 158 161 162 161 161 163 164 165 167 166 166 168 173 179 190 204 211 213 207 196 196 203
90 90 92 95 98 98 95 93 91 88 81 72 67 67 67 67 64 58 52 45 28 7 357 352 347 347 348 344 339 338 340 341 343 347 353 356 357 357 355 344 330 322 324 317 293 277 278 276 261 244 216 174 160 157 155 157 157 156 157 156 150 148 152 155 157 158 158 157 161 166 167 166 166 167 170 176 183 193 205 212 209 199 192 196 202
96 95 95 97 100 98 96 93 87 78 73 70 66 63 59 54 50 48 45 37 20 1 352 349 350 351 348 344 342 341 342 346 350 352 354 355 356 2 13 24 23 13 12 19 22 1 359 1 321 216 181 157 149 150 148 146 147 148 148 147 143 142 147 150 152 155 156 156 161 167 167 167 168 171 175 184 193 199 202 204 203 199 200 203 202
99 98 93 93 95 93 87 84 80 70 64 61 58 55 52 46 40 38 36 28 12 357 348 345 348 349 345 345 349 349 347 348 351 353 357 357 356 360 7 13 19 20 21 33 51 61 57 48 46 66 122 132 134 138 137 133 132 134 137 139 139 141 146 149 150 153 156 158 161 165 167 169 169 171 178 192 207 212 203 195 194 202 213 214 203
98 93 85 80 84 87 83 79 78 73 67 61 55 52 50 44 36 34 33 22 9 0 350 345 352 353 343 347 357 1 357 355 356 359 3 3 360 2 1 356 4 27 36 39 48 60 71 72 69 69 77 88 95 102 108 114 121 128 131 134 137 140 144 147 149 151 155 160 165 167 168 170 172 174 181 193 209 218 207 194 195 208 218 220 208
87 84 81 75 74 79 82 80 80 80 75 66 56 48 43 38 33 34 35 25 10 1 348 345 356 0 349 355 10 15 7 3 5 5 9 8 4 7 11 8 7 26 46 58 66 69 76 83 88 91 94 96 100 105 110 117 125 129 130 133 136 138 142 146 150 154 158 163 168 169 170 172 178 184 189 194 202 209 205 200 204 209 212 214 214
76 74 74 74 71 72 76 75 71 67 61 55 51 43 35 31 28 28 30 22 7 358 349 343 352 359 358 8 22 23 15 14 16 11 11 16 16 14 19 23 25 34 50 64 74 81 84 88 94 102 109 115 120 123 123 125 128 129 131 133 135 138 143 150 157 163 168 170 170 170 172 176 184 191 194 197 204 211 210 208 212 213 208 209 213
77 75 75 77 72 67 65 62 59 55 50 46 43 35 28 27 24 20 18 13 4 358 350 343 348 357 1 10 21 23 17 18 23 22 19 25 31 31 30 34 42 52 63 71 78 86 91 94 97 102 108 114 121 124 125 128 131 132 133 134 136 141 151 160 165 170 174 174 171 171 173 178 189 195 193 191 203 215 216 212 211 211 209 210 212
74 74 74 74 71 67 64 62 59 55 48 43 39 33 27 26 23 19 16 13 6 360 355 352 356 3 7 12 20 24 23 24 30 36 38 38 39 39 40 44 50 55 63 75 85 92 96 98 101 104 107 112 118 122 125 128 131 132 134 137 139 143 151 159 165 170 174 175 176 178 180 184 193 199 196 190 197 210 216 212 209 210 211 211 212
72 71 69 68 66 64 61 60 59 54 47 42 39 35 30 25 21 18 15 12 9 8 6 5 7 9 9 13 17 21 26 32 37 40 43 44 43 41 42 44 46 52 60 71 81 89 96 101 103 104 106 111 115 117 118 122 125 127 131 136 139 141 144 149 157 165 172 177 180 183 186 191 196 202 206 206 206 209 214 213 208 208 211 213 214
68 66 64 64 64 61 58 56 55 55 54 50 45 41 36 29 24 22 20 16 14 13 11 11 16 17 12 13 19 25 31 38 44 47 47 45 40 38 40 42 44 52 62 71 77 84 92 100 104 105 106 108 109 109 109 110 111 113 118 123 126 128 130 135 142 150 157 162 163 163 174 190 198 201 206 210 207 205 210 214 212 210 211 213 216
64 64 62 61 59 57 54 52 49 49 52 52 50 47 42 36 32 29 26 23 21 18 13 13 18 20 16 12 17 27 35 38 40 42 44 41 37 35 33 35 41 52 62 71 79 88 93 96 99 101 102 101 102 103 103 103 103 107 112 116 119 122 124 126 134 141 144 148 151 155 167 182 190 191 194 199 202 204 209 215 220 221 219 216 214
58 59 59 58 57 55 53 51 48 45 45 49 50 48 43 40 37 34 32 30 28 24 20 19 20 20 17 13 15 24 33 35 37 39 37 32 34 38 36 33 38 48 58 69 77 84 90 94 97 100 101 101 101 102 101 100 102 108 113 116 123 129 130 129 133 137 139 143 153 163 170 179 184 187 192 199 209 216 221 222 223 225 224 218 212
57 57 57 56 55 54 53 52 50 46 42 44 48 47 44 42 40 37 35 35 33 29 28 28 28 27 25 21 21 27 31 30 31 35 33 27 29 36 39 42 47 49 50 66 85 90 93 97 99 100 101 101 103 105 104 103 107 115 122 126 131 138 140 139 139 138 134 131 144 166 176 184 196 205 209 211 213 217 222 225 226 225 223 219 216
57 57 57 55 53 52 50 49 48 46 44 44 46 46 45 44 42 38 36 36 35 33 32 31 31 34 37 37 38 41 43 40 37 36 35 36 39 38 33 39 55 56 52 60 82 97 103 104 102 102 103 103 103 105 108 110 111 117 127 133 135 137 140 143 149 154 151 141 139 170 191 197 207 217 221 220 219 219 221 224 226 224 222 221 221